www.pogodaiklimat.ru

Погода и климат >> Архив погоды >> Индонезия >> Танджунгпандан


ПОГОДА в Танджунгпандане

  • Прогноз погоды в Танджунгпандане
  • Монитор погоды в Танджунгпандане

АРХИВ ПОГОДЫ в Танджунгпандане

Время (UTC), дата Ветер
(напр.,м/с)
 
Видим.   Явления Облачность Т
(С)
Тd
(С)
f
(%)
Тe
(С)
Тes
(С)
Комфортность P
(гПа)
Po
(гПа)
Тmin
(С)
Tmax
(С)
R
(мм)
R24
(мм)
S
(см)
03 12.08 ЮВ 8 7000 м 9/5 600 м
[Cu med, cong Ac trans Ci sp]
+30.6 +21.7 59 +39 +40 очень
душно
1013.0 1006.5
06 12.08 ЮВ 5 8000 м 9/5 600 м
[Cu med, cong Ac trans Ci sp]
+33.2 +21.4 50 +41 +44 опасность
перегрева
1010.5 1004.1
09 12.08 ЮВ 8 9000 м 9/5 600 м
[Cu med, cong Ac trans Ci sp]
+31.6 +21.6 55 +40 +40 очень
душно
1009.2 1002.9
12 12.08 ЮВ 3 8000 м 8/3 600 м
[Cu med, cong Ac trans Ci sp]
+27.0 +21.6 72 +34 +34 очень
душно
1010.8 1004.6 +33.6
15 12.08 ЮВ 3 7000 м 8/3 600 м
[Cu med, cong Ac trans Ci sp]
+25.2 +22.6 86 +33 +33 очень
душно
1012.0 1005.7
18 12.08 ЮВ 3 7000 м 8/3 600 м
[Cu med, cong Ac trans Ci sp]
+24.7 +23.0 90 +33 +33 очень
душно
1010.9 1004.6
21 12.08 ЮВ 2 7000 м 8/3 600 м
[Cu med, cong Ac trans Ci sp]
+24.1 +22.7 92 +32 +32 очень
душно
1010.0 1003.7
00 13.08 Ю 3 4000 м мгла 9/3 600 м
[Cu med, cong Ac trans Ci sp]
+24.7 +23.4 92 +33 +34 очень
душно
1011.8 1005.5 +23.2
03 13.08 Ю 9 8000 м 9/5 600 м
[Cu med, cong Ac trans Ci sp]
+30.4 +22.2 62 +39 +40 очень
душно
1012.8 1006.4
06 13.08 ЮВ 8 8000 м 9/5 600 м
[Cu med, cong Ac trans Ci sp]
+32.7 +21.2 51 +40 +41 очень
душно
1010.6 1004.3
09 13.08 ЮВ 5 8000 м 9/4 600 м
[Cu med, cong Ac trans Ci sp]
+31.4 +21.7 56 +40 +40 очень
душно
1009.6 1003.3
12 13.08 Ю 3 7000 м 8/3 600 м
[Cu med, cong Ac trans Ci sp]
+27.0 +22.2 75 +35 +35 очень
душно
1011.2 1004.9 +34.0
15 13.08 ЮВ 2 7000 м 8/3 600 м
[Cu med, cong Ac trans Ci sp]
+24.6 +22.4 88 +32 +32 очень
душно
1012.8 1006.5
18 13.08 Ю 1 7000 м 8/3 600 м
[Cu med, cong Ac trans Ci sp]
+24.1 +22.5 91 +32 +32 очень
душно
1011.7 1005.4
21 13.08 ЮВ 3 7000 м 8/3 600 м
[Cu med, cong Ac trans Ci sp]
+24.2 +22.9 92 +32 +32 очень
душно
1010.8 1004.7
00 14.08 ЮВ 3 4000 м мгла 6/3 600 м
[Cu med, cong Ac trans Ci sp]
+25.5 +23.8 90 +35 +36 очень
душно
1012.5 1006.2 +23.4
03 14.08 ЮВ 8 7000 м 9/5 600 м
[Cu med, cong Ac trans Ci sp]
+31.0 +22.5 61 +41 +41 опасность
перегрева
1013.3 1007.0
06 14.08 Ю 8 8000 м 9/5 600 м
[Cb cap Ac trans Ci sp]
+32.7 +22.7 56 +43 +44 опасность
перегрева
1011.2 1004.9
09 14.08 З 4 6000 м слаб. дождь 9/6 500 м
[Cb cap Ac trans Ci sp]
+28.8 +24.1 76 +40 +41 очень
душно
1010.0 1003.7 0.0
12 14.08 Ю 2 6000 м {дождь} 9/4 600 м
[Cu med, cong Ac trans Ci sp]
+26.6 +23.5 83 +36 +36 очень
душно
1011.9 1005.5 +34.1 0.8
15 14.08 Ю 2 6000 м 8/3 600 м
[Cu med, cong Ac trans Ci sp]
+24.0 +23.6 98 +33 +33 очень
душно
1013.0 1006.7
18 14.08 ЮВ 3 6000 м 8/3 600 м
[Cu med, cong Ac trans Ci sp]
+24.1 +22.8 92 +32 +32 очень
душно
1012.7 1006.4
21 14.08 ЮВ 2 6000 м 8/3 600 м
[Cu med, cong Ac trans Ci sp]
+23.6 +23.4 99 +32 +32 очень
душно
1011.8 1005.5
00 15.08 ЮВ 3 4000 м мгла 8/3 600 м
[Cu med, cong Ac trans Ci sp]
+25.0 +23.7 93 +34 +35 очень
душно
1013.2 1006.9 +23.2 0.8
03 15.08 ЮВ 9 8000 м 9/5 600 м
[Cu med, cong Ac trans Ci sp]
+31.1 +22.6 61 +41 +41 опасность
перегрева
1014.3 1007.9
06 15.08 ЮВ 9 9000 м 9/5 600 м
[Cu med, cong Ac trans Ci sp]
+33.2 +20.7 48 +40 +41 очень
душно
1011.6 1005.3
09 15.08 ЮВ 9 10 км 5/1 600 м
[Cu hum Ac trans Ci sp]
+31.6 +19.5 49 +37 +38 очень
душно
1010.4 1004.1
12 15.08 ЮВ 3 6000 м 6/1 600 м
[Cu hum Ac trans Ci sp]
+27.0 +20.9 69 +34 +34 очень
душно
1011.4 1005.1 +33.7
15 15.08 ЮВ 3 6000 м 8/3 600 м
[Cu med, cong Ac trans Ci sp]
+25.6 +21.6 79 +33 +33 очень
душно
1012.8 1006.5
18 15.08 штиль 0 6000 м 8/3 600 м
[Cu med, cong Ac trans Ci sp]
+25.1 +22.4 85 +33 +33 очень
душно
1011.8 1005.4
21 15.08 штиль 0 6000 м 8/3 600 м
[Cu med, cong Ac trans Ci sp]
+23.3 +21.4 89 +31 +31 очень
душно
1011.0 1004.7
00 16.08 ЮВ 3 5000 м мгла 9/3 600 м
[Cu med, cong Ac trans Ci sp]
+25.0 +23.2 90 +33 +34 очень
душно
1012.3 1005.9 +22.6
03 16.08 ЮВ 9 8000 м 9/4 600 м
[Cu med, cong Ac trans Ci sp]
+31.4 +20.6 53 +38 +39 очень
душно
1012.9 1006.8
06 16.08 ЮВ 10 8000 м 9/4 600 м
[Cu med, cong Ac trans Ci sp]
+33.2 +19.7 45 +39 +39 очень
душно
1011.3 1005.0
09 16.08 ЮВ 9 8000 м 9/5 600 м
[Cu med, cong Ac trans Ci sp]
+31.1 +20.6 54 +38 +38 очень
душно
1010.1 1003.7
12 16.08 ЮВ 4 7000 м 9/3 600 м
[Cu med, cong Ac trans Ci sp]
+27.1 +22.5 76 +36 +36 очень
душно
1011.2 1004.9 +34.0
15 16.08 ЮВ 5 7000 м 8/3 600 м
[Cu med, cong Ac trans Ci sp]
+25.8 +22.8 84 +34 +34 очень
душно
1013.1 1006.8
18 16.08 Ю 2 7000 м 8/3 600 м
[Cu med, cong Ac trans Ci sp]
+24.0 +22.1 89 +31 +31 очень
душно
1012.5 1006.2
21 16.08 ЮВ 3 6000 м 8/3 600 м
[Cu med, cong Ac trans Ci sp]
+23.2 +21.8 92 +31 +31 очень
душно
1012.3 1006.0
00 17.08 ЮВ 3 4000 м мгла 8/3 600 м
[Cu med, cong Ac trans Ci sp]
+24.2 +22.6 91 +32 +32 очень
душно
1013.4 1007.1 +23.2
03 17.08 Ю 8 8000 м 9/4 600 м
[Cu med, cong Ac trans Ci sp]
+29.8 +21.5 61 +38 +39 очень
душно
1013.8 1007.5
06 17.08 ЮВ 9 8000 м 9/4 600 м
[Cu med, cong Ac trans Ci sp]
+32.8 +19.5 46 +39 +39 очень
душно
1011.4 1005.1
09 17.08 ЮВ 8 8000 м 9/4 600 м
[Cu med, cong Ac trans Ci sp]
+30.4 +21.2 58 +38 +38 очень
душно
1010.6 1004.2
12 17.08 ЮВ 2 8000 м 8/3 600 м
[Cu med, cong Ac trans Ci sp]
+26.2 +21.0 73 +33 +33 очень
душно
1011.9 1005.6 +33.6
15 17.08 ЮВ 2 7000 м 8/3 600 м
[Cu med, cong Ac trans Ci sp]
+24.5 +21.4 83 +31 +31 очень
душно
1012.9 1006.6
18 17.08 ЮВ 4 7000 м 8/3 600 м
[Cu med, cong Ac trans Ci sp]
+23.8 +21.5 87 +30 +30 очень
душно
1011.8 1005.5
21 17.08 Ю 4 6000 м 8/3 600 м
[Cu med, cong Ac trans Ci sp]
+22.7 +21.2 91 +30 +30 очень
душно
1010.6 1004.3
00 18.08 ЮВ 2 5000 м мгла 8/3 600 м
[Cu med, cong Ac trans Ci sp]
+22.5 +21.5 94 +30 +31 очень
душно
1012.8 1006.4 +21.9
03 18.08 ЮВ 11 8000 м 9/4 600 м
[Cu med, cong Ac trans Ci sp]
+30.8 +20.3 54 +38 +38 очень
душно
1013.3 1007.0
06 18.08 ЮВ 10 9000 м 9/5 600 м
[Cu med, cong Ac trans Ci sp]
+32.4 +19.4 46 +38 +38 очень
душно
1011.2 1004.9
09 18.08 ЮВ 6 9000 м 9/4 600 м
[Cu med, cong Ac trans Ci sp]
+31.3 +20.3 52 +38 +39 очень
душно
1010.1 1003.8
12 18.08 Ю 2 7000 м 8/3 600 м
[Cu med, cong Ac trans Ci sp]
+27.1 +22.2 75 +35 +35 очень
душно
1011.6 1005.3 +33.6
15 18.08 Ю 1 7000 м 8/3 600 м
[Cu med, cong Ac trans Ci sp]
+25.0 +22.2 84 +32 +32 очень
душно
1012.9 1006.8
18 18.08 Ю 2 7000 м 8/3 600 м
[Cu med, cong Ac trans Ci sp]
+24.4 +22.5 89 +32 +32 очень
душно
1012.5 1006.2
21 18.08 ЮВ 2 7000 м 8/3 600 м
[Cu med, cong Ac trans Ci sp]
+23.6 +22.3 92 +31 +31 очень
душно
1011.9 1005.8
00 19.08 ЮВ 2 5000 м мгла 9/3 600 м
[Cu med, cong Ac trans Ci sp]
+24.0 +22.4 91 +31 +32 очень
душно
1013.3 1007.0 +21.9

 

Местоположение метеостанции Танджунгпандан (Индонезия): широта -2.75 долгота 107.75 высота над уровнем моря 44 м.

В архиве по умолчанию представлена погода в Танджунгпандане за последнюю неделю. Архивные данные за месяц целиком и за предыдущие месяцы, начиная с января 2011 года, Вы можете получить, выбрав интересующий диапазон дат из раскрывающегося списка и нажав кнопку "Ввод!".


*Определитесь, кто Вы:
робот инопланетянин человек

Внимание! Время в таблицах - всемирное. Для получения местного времени необходимо прибавить поправку, которая равна 7 ч.

Смотрите также архив погоды в соседних городах и на ближайших метеорологических станциях:

Погода в Панкалпинанге (Индонезия) (191 км)
Погода в Кетапанге (Индонезия) (265 км)
Погода в Палембанге (Индонезия) (339 км)
Погода в Понтианаке (Индонезия) (342 км)
Погода в Джакарта порту (Индонезия) (385 км)
Погода в Танджунгкаранге (Индонезия) (387 км)
Погода в Аэропорту Сукарно-Хатта (Индонезия) (394 км)
Погода в Джакарте (Индонезия) (395 км)
Погода в Чуруге (Индонезия) (406 км)
Погода в Серанге (Индонезия) (416 км)

Пояснения к столбцам:

Ветер - указаны скорость ветра в м/с - средняя за 10 мин, порывы в срок и между сроками (в фигурных скобках) и направление, откуда дует ветер: С - северный, СВ - северо-восточный, В - восточный, ЮВ - юго-восточный, Ю - южный, ЮЗ - юго-западный, З - западный, СЗ - северо-западный.
Видимость - горизонтальная дальность видимости в метрах или километрах. При видимости от 1 до 10 км при отсутствии осадков обычно наблюдается дымка, при ухудшении видимости до 1 км и менее - туман. В сухую погоду видимость может ухудшаться дымом, пылью или мглою.
Явления - указаны атмосферные явления, наблюдавшиеся в срок или в последний час перед сроком; фигурными скобками обозначены явления, наблюдавшиеся между сроками (за 1-3 часа до срока); квадратными скобками обозначены град или гололедные отложения с указанием их диаметра в мм.
Облачность - указаны через наклонную черту общая и нижняя облачность в баллах и высота нижней границы облаков в метрах; квадратными скобками обозначены формы облаков: Ci - перистые, Cs - перисто-слоистые, Cc - перисто-кучевые, Ac - высококучевые, As - высокослоистые, Sc - слоисто-кучевые, Ns - слоисто-дождевые, Cu - кучевые, Cb - кучево-дождевые. Подробнее классификацию облаков см. в Атласе облаков (PDF).
T - Температура воздуха - температура, измеренная на высоте 2 м над землей.
Td - Температура точки росы - температура, при понижении до которой содержащийся в воздухе водяной пар достигнет насыщения.
f - Относительная влажность воздуха - влажноcть воздуха, измеренная на высоте 2 м над землей.
Te - Эффективная температура - температура, которую ощущает одетый по сезону человек в тени. Характеристика душности погоды. При расчете учитывается влияние влажности воздуха и скорости ветра на теплоощущения человека.
Tes - Эффективная температура на солнце - температура, которую ощущает человек, с поправкой на солнечный нагрев. Характеристика знойности погоды. Зависит от высоты солнца над горизонтом, облачности и скорости ветра. Ночью, в пасмурную погоду, а также при ветре 12 м/с и более поправка равна нулю.
P - Атмосферное давление - приведенное к уровню моря атмосферное давление.
Po - Атмосферное давление - измеренное на уровне метеостанции атмосферное давление.
Tmin - Минимальная температура - минимум температуры воздуха на высоте 2 м над землей.
Tmax - Максимальная температура - максимум температуры воздуха на высоте 2 м над землей.
R - Количество осадков - Количество выпавших осадков за период времени, мм. При наведении курсора мыши на число - период времени, за который выпало указанное количество осадков.
R24 - Количество осадков - Количество выпавших осадков за 24 часа, мм.
S - Снежный покров - Высота снежного покрова, см. При наведении курсора мыши на число - состояние снежного покрова и степень покрытия местности в баллах.